Location: İstanbul
(41.0082°N, 28.9784°E)
Time: 03:49:40
(UTC+03:00)

O/OREOS (USA 219) - Visible Passes

Search period start: 24 April 2024 00:00
Search period end: 04 May 2024 00:00
Orbit: 621 x 646 km, 72.0° (Epoch: 22 May)

Date Brightness Start Highest point End Pass type
(mag) Time Alt. Az. Time Alt. Az. Time Alt. Az.
24 Apr ? 02:58:46 10° NNE 03:00:42 12° NE 03:02:38 10° ENE visible
24 Apr ? 04:36:11 10° NNW 04:40:41 75° WSW 04:45:07 10° SSE visible
25 Apr ? 03:19:27 10° N 03:23:10 25° ENE 03:26:51 10° ESE visible
25 Apr ? 04:58:36 10° NW 05:02:34 32° WSW 05:06:31 10° SSW visible
26 Apr ? 03:41:01 10° NNW 03:45:25 53° ENE 03:49:47 10° SE visible
26 Apr ? 05:21:58 10° WNW 05:24:19 14° W 05:26:39 10° SW visible
27 Apr ? 02:25:16 10° NNE 02:27:35 14° NE 02:29:53 10° E visible
27 Apr ? 04:03:01 10° NNW 04:07:29 67° WSW 04:09:04 38° S visible
28 Apr ? 02:46:10 10° N 02:50:01 27° ENE 02:51:46 21° E visible
28 Apr ? 04:25:31 10° NW 04:29:07 28° W 04:29:07 28° W visible
29 Apr ? 03:07:47 10° NNW 03:12:14 59° ENE 03:12:14 59° ENE visible
29 Apr ? 04:49:11 10° WNW 04:49:37 11° WNW 04:49:37 11° WNW visible
30 Apr ? 01:51:50 10° NNE 01:54:27 15° NE 01:55:36 14° ENE visible
30 Apr ? 03:29:51 10° NNW 03:32:59 41° NW 03:32:59 41° NW visible
01 May ? 02:12:52 10° N 02:16:31 30° NE 02:16:31 30° NE visible
01 May ? 03:52:26 10° NW 03:53:54 17° WNW 03:53:54 17° WNW visible
02 May ? 02:34:34 10° NNW 02:37:33 40° N 02:37:33 40° N visible
03 May ? 01:18:26 10° NNE 01:21:16 17° NE 01:21:16 17° NE visible
03 May ? 02:56:41 10° NNW 02:58:40 25° NW 02:58:40 25° NW visible
